Location: Henham
(51.9333°N, 0.2500°E)
Time: 08:53:43
(UTC+00:00)

STARLINK-28 - Pass Details

Date: 23 October 2019
Orbit: 548 x 551 km, 53.0° (Epoch: 13 November)

Event Time Altitude Azimuth Distance (km) Brightness Sun altitude
Rises 17:17:18 0° 269° (W) 2,717 9.4 -5.1°
Reaches altitude 10° 17:19:32 10° 271° (W) 1,825 8.0 -5.4°
Maximum altitude 17:23:41 76° 356° (N) 572 3.7 -6.0°
Drops below altitude 10° 17:27:51 10° 84° (E) 1,827 5.6 -6.7°
Enters shadow 17:28:10 - 84° (E) 1,954 5.7 -6.7°
